Notices

What's New in latest Release from April 7th, 2021:

- Updated Glossary, including Speed of Maximum Gust, and Total Hourly Precipitation

- Updated national and regional climate services offices contacts and prices information

- Addition of station inventory lists for 1981-2010, 1971-2000, and 1961-1990 Normals.

If you haven't already, please take our survey and provide feedback about our website: https://eccc.sondage-survey.ca/f/LanguageSelection.aspx?s=442ca660-fcf1-47c0-95a9-59707d6fd709

Hourly Data Report for November 08, 2006

TORONTO CITY
ONTARIO

43°40'00.000" N
79°24'00.000" W
112.50 m
6158355
71508
XTO

Download Data

Hourly Data (November 2006)
Hourly Data Report for November 8, 2006
TIME
LST
Temp Definition
°C
Dew Point Definition
°C
Rel Hum Definition
%
Precip. Amount Definition
mm

Wind Dir Definition
10's deg

Wind Spd Definition
km/h
Visibility Definition
km
Stn Press Definition
kPa
Hmdx Definition


Wind Chill Definition


Weather Definition


00:00 7.8 7.7 99   LegendMM LegendMM   99.69     LegendNANA
01:00 7.8 7.7 99   LegendMM LegendMM   99.62     LegendNANA
02:00 7.9 7.8 99   LegendMM LegendMM   99.60     LegendNANA
03:00 7.9 7.9 100   LegendMM LegendMM   99.53     LegendNANA
04:00 8.1 8.1 100   LegendMM LegendMM   99.45     LegendNANA
05:00 8.2 8.2 100   LegendMM LegendMM   99.43     LegendNANA
06:00 8.6 8.6 100   LegendMM LegendMM   99.46     LegendNANA
07:00 8.9 8.9 100   LegendMM LegendMM   99.41     LegendNANA
08:00 9.4 9.4 100   LegendMM LegendMM   99.37     LegendNANA
09:00 9.8 9.8 100   LegendMM LegendMM   99.34     LegendNANA
10:00 10.0 10.0 100   LegendMM LegendMM   99.33     LegendNANA
11:00 10.3 10.3 100   LegendMM LegendMM   99.23     LegendNANA
12:00 10.4 10.4 100   LegendMM LegendMM   99.16     LegendNANA
13:00 10.7 10.7 100   LegendMM LegendMM   99.11     LegendNANA
14:00 10.5 10.4 99   LegendMM LegendMM   99.07     LegendNANA
15:00 10.4 10.3 99   LegendMM LegendMM   99.04     LegendNANA
16:00 10.3 10.2 99   LegendMM LegendMM   99.05     LegendNANA
17:00 10.4 10.2 99   LegendMM LegendMM   99.10     LegendNANA
18:00 10.6 10.5 99   LegendMM LegendMM   99.11     LegendNANA
19:00 10.4 10.2 99   LegendMM LegendMM   99.08     LegendNANA
20:00 10.0 9.9 99   LegendMM LegendMM   99.07     LegendNANA
21:00 10.1 10.0 99   LegendMM LegendMM   99.07     LegendNANA
22:00 9.9 9.8 99   LegendMM LegendMM   99.02     LegendNANA
23:00 9.9 9.8 99   LegendMM LegendMM   98.99     LegendNANA

Notes on Data Quality.

Legend

  • E = Estimated
  • M = Missing
  • NA = Not Available*
  • [empty] = Indicates an unobserved value
Date modified: